Theta_e
305 304 303 302 302 302 303 305 306 308 311 312 313 313 313 313 312 312 313 314 314 314 315 315 314 315 317 318 317 319 319 324 323 324 325 324 324 325 326 326 326 327 327
305 304 302 302 300 301 302 304 305 306 307 308 310 310 311 312 312 311 312 312 312 312 312 312 312 312 313 313 314 315 317 319 321 323 324 324 324 323 324 325 325 325 327
305 304 302 301 300 299 300 301 303 304 305 307 307 308 308 308 308 309 309 310 310 310 311 311 310 309 310 311 311 311 311 312 313 318 320 321 322 323 323 323 324 324 324
304 303 302 301 300 298 299 299 300 302 303 304 305 306 307 307 306 306 307 307 307 308 308 308 308 307 307 307 309 310 310 311 312 313 316 317 319 321 322 322 323 324 323
304 303 302 301 300 298 298 298 298 298 299 300 301 301 303 304 304 304 304 304 304 304 305 305 305 306 306 306 307 308 309 310 310 311 311 313 316 318 318 319 320 319 320
304 303 302 301 299 298 298 297 297 297 296 296 296 295 294 295 295 294 294 296 296 295 295 295 297 301 303 304 305 305 305 306 306 308 309 310 311 313 313 313 316 317 318
304 303 302 301 299 298 297 296 296 295 294 293 292 292 292 292 292 291 291 291 291 291 291 290 291 291 291 295 300 302 303 303 303 304 304 305 305 306 307 308 310 312 316
305 303 302 300 299 298 297 295 294 293 292 291 291 291 291 291 291 291 290 290 290 290 289 289 289 289 289 289 290 292 296 298 299 299 299 302 302 302 303 303 304 309 311
304 303 302 301 299 298 297 295 293 292 291 290 290 290 289 289 289 289 289 289 288 288 288 288 288 288 288 288 288 289 289 289 291 294 296 296 296 296 301 301 301 301 303
304 303 302 301 299 298 296 295 294 292 291 290 289 289 289 289 289 289 289 289 288 288 287 287 286 286 287 287 287 287 287 287 288 288 288 289 290 292 293 294 299 300 299
305 305 305 303 300 297 296 295 293 291 290 289 288 288 288 289 291 290 292 294 295 294 292 288 286 286 285 285 285 285 286 286 286 286 286 286 287 287 287 288 290 291 294
306 306 306 305 300 297 295 292 290 290 289 288 287 287 287 290 292 292 292 292 290 288 285 286 285 285 284 284 284 284 284 284 285 285 285 285 285 285 286 286 286 287 287
305 304 303 303 301 296 293 292 291 289 289 288 287 286 288 291 291 290 289 289 288 287 287 287 286 285 284 283 284 284 283 283 283 283 284 284 284 284 285 285 286 286 286
300 299 300 300 298 294 292 291 290 289 288 287 286 287 289 289 288 286 286 286 286 286 285 285 284 283 283 282 283 283 283 283 283 282 283 283 283 284 284 284 284 284 284
299 298 299 298 296 293 291 290 288 287 286 286 288 288 287 286 286 285 285 285 285 284 284 284 283 282 282 282 282 283 283 282 282 282 282 282 282 283 283 283 283 284 284
296 296 296 296 293 291 290 288 286 286 285 287 288 286 285 285 284 284 284 284 283 283 281 281 281 282 281 281 281 282 282 282 281 281 281 281 281 282 282 282 284 284 284
294 293 292 291 290 288 287 286 285 285 285 287 286 284 284 284 283 283 283 283 282 282 281 280 280 280 280 280 280 281 282 281 280 280 281 281 281 281 281 282 282 282 283
292 291 290 289 287 286 285 285 284 285 286 285 283 283 283 283 283 283 282 281 280 280 279 279 279 279 279 279 279 281 280 280 280 280 280 280 280 280 281 282 282 282 282
289 289 288 287 286 285 285 285 286 285 284 283 282 282 282 282 282 281 280 279 279 279 279 279 278 278 278 278 279 280 280 279 279 279 279 280 280 280 282 282 281 281 281
287 287 287 286 286 286 285 284 284 283 282 282 282 281 282 281 280 279 278 278 278 278 278 278 277 277 277 278 278 279 279 279 278 279 279 279 279 280 281 281 281 281 281
286 286 285 284 284 284 283 283 283 282 282 281 281 281 281 279 278 278 278 277 277 277 277 277 277 277 277 278 278 278 279 278 279 278 278 278 278 280 281 281 281 281 281
284 284 283 283 283 282 282 282 282 281 281 281 280 279 278 277 277 277 277 277 277 277 277 277 277 277 277 277 277 278 278 279 278 278 278 278 279 280 280 280 280 280 280
283 283 282 282 282 282 281 281 281 280 279 278 277 277 277 277 277 277 277 276 277 277 276 277 277 277 277 277 277 277 278 278 279 278 278 279 280 279 278 278 278 277 277
282 282 281 281 281 281 280 280 278 278 277 277 277 276 276 276 276 276 276 276 276 276 276 276 276 276 276 277 277 278 278 278 278 278 279 279 279 278 277 277 277 276 275
281 281 281 280 280 280 278 277 277 277 276 276 276 276 276 276 276 276 276 276 276 276 276 276 276 276 276 276 277 278 278 278 279 280 279 278 277 277 276 276 275 275 274
280 280 280 279 278 277 277 276 276 276 276 276 276 276 276 276 276 276 276 275 275 275 275 275 276 276 276 277 277 277 278 278 278 278 277 277 276 275 275 274 274 274 274
Wind_Speed
10 8 8 8 9 11 12 14 16 16 11 7 4 5 6 7 8 8 8 13 16 20 20 21 21 21 19 20 18 19 20 20 24 24 29 37 37 41 43 46 45 43 42
11 10 8 7 8 9 11 12 14 15 16 13 11 9 8 9 10 10 11 12 14 16 19 22 24 21 17 15 17 18 21 22 16 14 22 20 33 36 36 45 48 48 41
13 10 9 8 9 9 10 11 12 13 14 13 12 10 8 7 7 9 10 9 9 8 9 13 16 16 12 10 12 12 15 17 18 22 15 11 13 18 29 36 45 44 43
11 11 10 9 9 9 10 11 10 10 11 11 10 8 8 9 10 10 11 11 10 10 9 9 10 7 11 12 10 13 13 15 18 17 17 24 21 7 15 18 22 38 48
11 9 10 10 11 10 9 10 10 11 10 9 9 9 8 8 8 7 7 6 6 5 6 5 6 6 7 7 7 6 8 10 12 15 18 19 20 23 24 20 22 27 23
12 11 10 11 11 10 10 10 10 10 10 9 8 7 6 5 5 5 6 6 7 7 7 7 6 7 6 5 6 7 8 8 7 4 5 8 7 11 14 12 21 26 30
14 13 12 11 11 11 11 11 10 9 9 8 8 6 6 5 5 5 6 6 6 7 8 9 8 8 8 7 6 6 6 6 8 9 8 7 6 4 5 9 12 7 6
16 17 14 12 12 12 12 12 11 10 9 8 8 7 6 5 5 5 6 7 8 8 9 10 10 9 9 8 8 7 5 3 4 7 9 10 8 9 9 8 10 11 6
13 16 15 15 15 14 12 12 11 11 11 10 9 7 6 5 4 5 6 6 6 7 8 9 10 10 9 9 8 7 6 6 4 3 5 7 10 11 12 11 11 11 5
12 14 16 18 18 16 14 14 13 13 12 11 10 10 8 6 6 6 7 7 7 6 7 9 10 10 10 9 8 8 7 6 5 4 4 3 3 5 9 10 11 10 9
9 10 13 17 20 20 18 16 14 12 12 12 12 11 10 10 10 13 16 18 17 15 12 8 9 10 9 8 8 9 8 8 7 6 6 6 6 6 6 6 8 9 13
11 14 15 18 19 22 19 15 12 12 12 12 12 12 13 13 16 19 18 14 9 7 6 7 8 9 9 9 9 9 9 10 9 9 8 8 7 7 8 6 6 8 9
12 14 15 15 15 19 19 16 13 12 11 11 12 14 15 18 19 19 16 13 12 9 8 6 6 9 11 10 10 10 10 10 10 10 10 10 9 9 9 9 10 8 8
12 15 16 15 13 16 17 15 14 12 11 12 14 16 18 21 17 14 14 13 10 8 7 7 8 10 10 9 10 11 11 11 11 10 10 9 9 8 9 11 12 12 12
15 16 17 16 13 15 17 16 15 12 11 10 16 21 21 15 13 13 12 10 8 7 7 8 10 11 10 10 11 13 14 13 12 11 11 10 8 7 8 9 10 11 13
13 17 16 12 9 14 17 16 12 10 10 14 19 16 14 13 11 10 9 8 7 7 9 11 12 12 11 11 11 11 16 14 14 13 12 11 10 11 10 8 8 8 11
14 16 14 10 6 13 14 12 11 10 13 19 15 12 11 11 10 9 8 6 7 9 11 13 12 12 12 11 12 10 15 15 13 12 11 11 11 12 11 10 11 11 10
12 11 9 7 4 8 11 11 12 14 17 13 10 10 10 10 9 8 7 8 10 12 14 14 14 14 13 11 10 8 13 12 11 10 11 11 10 10 11 13 15 16 15
9 8 6 4 3 6 9 12 14 12 9 9 9 10 10 10 9 8 9 11 12 14 14 14 14 14 12 9 8 7 12 12 11 9 9 10 10 9 11 14 15 15 16
8 7 6 8 8 9 10 9 8 7 8 9 10 10 11 10 10 11 12 14 15 14 14 12 11 10 9 8 7 8 10 11 11 12 12 12 12 12 12 13 16 18 19
10 8 7 6 5 5 6 7 7 8 9 10 11 11 11 12 14 14 14 14 13 13 12 10 8 8 9 9 8 8 10 11 11 15 15 16 13 11 13 15 17 16 17
7 6 5 5 6 6 7 7 8 9 11 11 12 13 13 14 14 14 12 12 12 11 10 9 8 8 9 9 9 10 8 8 13 15 16 15 13 15 15 16 15 16 21
6 6 7 7 7 8 9 9 10 11 13 13 14 14 14 14 13 12 12 11 11 11 9 9 11 11 10 9 7 4 9 11 13 15 17 16 16 17 17 19 17 19 22
7 8 9 9 9 10 11 12 13 14 15 15 15 14 13 12 12 12 12 12 12 10 7 11 13 13 13 11 6 10 13 14 16 17 17 14 13 22 23 22 22 28 26
8 9 10 11 12 13 14 15 16 16 16 16 15 14 12 12 12 12 12 11 9 10 11 15 15 16 17 15 14 15 17 17 18 20 17 22 19 23 27 28 26 24 20
11 11 12 13 15 16 17 17 17 16 16 16 14 13 13 12 13 12 10 10 10 11 11 12 13 16 15 15 15 15 15 15 16 19 20 24 26 28 27 25 24 22 20
Wind_Direction
275 285 306 320 333 347 358 9 17 28 28 27 7 338 337 335 323 325 309 301 301 315 311 303 303 296 286 282 279 268 269 265 266 289 280 270 265 255 255 248 245 246 241
263 269 282 300 321 338 355 2 14 24 26 27 21 9 357 343 342 335 315 303 295 296 303 305 310 307 299 284 279 277 270 264 266 276 277 283 259 259 264 256 258 257 246
258 260 272 290 311 328 339 351 1 9 16 20 23 25 20 20 13 4 0 356 346 330 311 306 320 328 326 326 318 309 299 292 275 253 268 266 256 265 263 258 255 257 254
249 250 263 281 298 312 325 336 344 351 358 8 10 10 14 21 22 14 13 11 16 15 16 355 330 353 352 337 332 311 302 297 290 287 262 258 271 296 279 273 272 259 252
246 254 265 273 283 291 302 311 321 331 337 342 349 359 5 16 14 4 5 12 5 15 21 17 19 28 24 21 32 8 335 312 297 289 291 280 271 267 276 287 265 272 268
239 242 254 263 268 276 287 293 300 308 317 324 330 338 346 357 359 359 356 356 358 360 1 354 353 16 15 10 14 30 33 39 31 359 319 304 298 278 281 282 273 278 277
236 243 251 258 264 273 280 282 285 288 295 305 316 319 322 336 343 350 360 2 3 3 6 8 7 8 9 6 3 1 353 357 17 22 40 50 52 6 325 279 264 273 283
242 244 254 263 269 275 280 281 281 282 286 291 297 302 312 321 334 348 355 359 2 4 10 7 5 6 5 0 0 356 352 351 342 343 339 343 357 7 10 17 359 304 274
262 262 263 269 272 274 278 280 279 279 280 281 284 288 295 305 317 331 334 345 356 1 6 5 3 1 0 359 356 353 352 356 349 358 321 318 333 331 322 323 350 18 338
286 282 279 276 271 266 264 267 269 268 270 273 274 274 273 277 297 310 303 317 320 331 345 352 353 352 352 354 358 357 2 3 1 359 352 348 336 318 322 321 321 321 321
343 320 302 287 270 259 256 257 257 260 263 265 266 262 261 262 288 288 288 288 288 293 297 317 336 336 340 348 353 353 355 357 1 2 5 356 354 351 351 339 322 319 313
341 331 318 303 273 257 251 248 255 264 270 270 273 271 267 276 287 292 291 288 287 302 330 335 331 329 333 341 348 353 351 349 349 352 352 353 356 354 354 354 346 335 331
337 330 326 313 285 252 243 247 253 260 271 276 275 272 276 283 291 290 284 276 277 281 277 285 311 326 327 329 336 344 345 343 339 337 337 340 343 344 346 344 342 342 344
342 333 332 322 293 248 243 248 252 258 267 275 281 282 283 293 284 275 274 289 288 290 302 321 324 316 316 315 323 324 330 331 333 331 329 329 332 336 333 332 336 335 330
347 340 335 326 296 244 234 238 245 255 267 277 295 296 293 290 287 285 280 279 281 294 309 314 309 303 303 305 319 319 318 322 323 323 320 321 318 308 321 329 336 334 332
339 336 335 319 275 241 233 234 240 256 266 291 298 290 286 287 285 277 271 275 287 308 315 302 296 299 303 304 308 318 312 318 319 317 314 311 304 300 312 324 340 327 324
336 333 337 329 278 238 234 233 244 256 275 296 291 283 282 280 278 275 277 288 304 311 303 297 298 301 303 303 305 316 306 315 316 320 317 311 302 297 304 316 314 312 308
328 329 327 315 271 228 227 240 252 270 288 286 279 279 278 276 275 278 296 316 315 300 298 301 304 306 308 307 311 326 302 307 316 319 317 315 312 313 328 330 315 314 312
317 317 326 305 256 240 242 253 268 277 275 269 276 279 281 284 288 299 313 306 297 297 299 303 306 310 314 319 329 317 301 308 318 319 316 320 319 330 331 318 317 319 320
307 304 293 279 272 268 271 273 271 269 268 271 277 280 285 295 308 309 298 297 300 301 303 306 309 310 314 318 321 321 316 317 324 325 322 324 321 322 325 320 315 312 321
296 300 297 284 277 276 278 275 276 275 277 279 282 288 303 310 296 293 295 296 297 299 301 304 306 310 315 319 314 330 315 319 326 318 323 325 328 326 320 316 311 320 313
286 297 291 292 295 294 292 286 285 286 286 290 300 301 295 292 288 290 290 292 293 295 300 297 300 307 314 318 318 328 324 324 310 314 317 319 327 315 306 299 305 308 293
291 293 288 289 292 293 293 290 290 294 295 297 297 295 293 289 287 288 289 287 289 297 298 300 312 316 318 322 327 347 335 317 309 309 314 309 301 297 295 301 298 298 300
292 292 293 294 292 290 290 291 293 295 294 295 294 293 291 284 288 287 287 288 291 293 292 307 313 317 322 327 330 338 327 320 316 315 311 297 288 297 298 295 294 300 304
286 289 291 291 291 291 292 294 294 293 292 292 291 288 284 285 285 285 285 283 283 288 309 312 312 314 317 323 322 312 311 311 313 305 294 297 295 297 302 304 305 306 306
287 289 290 291 292 293 294 293 291 290 291 289 286 285 285 285 286 283 275 281 288 291 288 290 292 297 295 298 302 303 303 304 301 291 290 295 299 301 302 303 303 303 299